#timestamp,LO_Frequency,Hit,StdDev 
1457024415.4,286047003.1,N
1457024435.2,286047003.3,N
1457024455.0,286047003.4,N
1457024455.9,286047003.4,N
1457024475.8,286047001.9,N
1457024495.6,286046999.8,N
1457024515.4,286047000.5,N
1457024535.2,286047002.2,N
1457024555.1,286047001.6,N
1457024556.0,286047001.6,N
1457024575.8,286047001.5,N
1457024595.6,286047003.9,N
1457024615.5,286047003.7,N
1457024635.3,286047003.9,N
1457024655.1,286047002.0,N
1457024675.9,286047002.5,N
1457024695.7,286047002.2,N
1457024715.5,286046999.3,N
1457024735.4,286046999.3,N
1457024755.2,286046998.8,N
1457024775.0,286046997.7,N
1457024775.9,286046997.7,N
1457024795.8,286046999.2,N
1457024815.6,286046998.7,N
1457024835.4,286046998.4,N
1457024855.3,286046997.8,N
1457024875.1,286046994.4,N
1457024876.0,286046994.4,N
1457024895.8,286046995.5,N
1457024915.6,286046995.0,N
1457024935.5,286046995.3,N
1457024955.3,286046994.6,N
1457024975.1,286046991.3,N
1457024995.9,286046989.4,Y
1457025015.7,286046992.8,P
1457025035.5,286046992.4,N
1457025055.4,286046992.2,N
1457025075.2,286046992.6,N
1457025095.0,286046994.9,N
1457025095.9,286046994.9,N
1457025115.8,286046994.9,N
1457025135.6,286046998.8,N
1457025155.4,286046997.5,N
1457025175.3,286046998.7,N
1457025195.1,286046998.6,N
1457025215.8,286046996.6,N
1457025235.7,286046999.9,N
1457025255.5,286047001.1,N
1457025275.3,286047000.7,N
1457025295.2,286047003.8,N
1457025315.9,286047005.0,N
1457025335.7,286047003.1,N
1457025355.6,286047003.2,N
1457025375.4,286047002.8,N
1457025395.2,286047002.1,N
1457025415.0,286047003.2,N
1457025415.9,286047003.2,N
1457025435.8,286046999.7,N
1457025455.6,286047002.8,N
1457025475.4,286047002.4,N
1457025495.3,286046998.2,N
1457025515.1,286046998.2,N
1457025535.8,286047000.8,N
1457025555.7,286046999.1,N
1457025575.5,286046999.3,N
1457025595.3,286046998.6,N
1457025615.2,286046998.6,N
1457025635.9,286046998.8,N
1457025655.7,286046994.9,N
1457025675.6,286046997.7,N
1457025695.4,286046999.6,N
1457025715.2,286046996.8,N
1457025735.0,286046998.7,N
1457025736.0,286046998.7,N
1457025755.8,286046999.1,N
1457025775.6,286046993.3,N
1457025795.4,286046993.4,N
1457025815.3,286047000.8,N
1457025835.1,286047000.7,N
1457025855.8,286047002.6,N
1457025875.7,286046998.2,N
1457025895.5,286046998.3,N
1457025915.3,286046997.8,N
1457025935.2,286046999.3,N
1457025955.9,286046999.4,N
1457025975.7,286046998.5,N
1457025995.6,286047001.4,N
1457026015.4,286047005.1,N
1457026035.2,286047007.6,Y
1457026055.1,286047007.3,P
1457026056.0,286047007.3,N
1457026075.8,286047010.1,N
1457026095.6,286047010.2,N
1457026115.5,286047009.2,N
1457026135.3,286047006.9,N
1457026155.1,286047004.7,N
1457026175.9,286047004.6,N
1457026195.7,286047005.0,N
1457026215.5,286047001.3,N
1457026235.3,286047001.5,N
1457026255.2,286047001.3,N
1457026275.0,286047004.2,N
1457026275.9,286047004.2,N
1457026295.7,286046999.8,N
1457026315.6,286047001.7,N
1457026335.4,286047002.6,N
1457026355.2,286047001.8,N
1457026375.1,286046999.9,N
1457026376.0,286046999.9,N
1457026395.8,286047004.1,N
1457026415.6,286047002.1,N
1457026435.5,286047004.4,N
1457026455.3,286047001.5,N
1457026475.1,286046999.7,N
1457026495.9,286047002.0,N
1457026515.7,286047003.8,N
1457026535.5,286047001.8,N
1457026555.3,286047001.4,N
1457026575.2,286046998.9,N
1457026595.0,286047000.1,N
1457026595.9,286047000.1,N
1457026615.7,286046999.8,N
1457026635.6,286047001.2,N
1457026655.4,286046998.7,N
1457026675.2,286047001.2,N
1457026695.1,286046999.3,N
1457026696.0,286046999.3,N
1457026715.8,286046996.6,N
1457026735.6,286046996.0,N
1457026755.5,286046994.1,N
1457026775.3,286046993.6,N
1457026795.1,286046994.3,N
1457026815.9,286046993.7,N
1457026835.7,286046993.5,N
1457026855.5,286046991.9,N
1457026875.4,286046996.1,N
1457026895.2,286046994.8,N
1457026915.0,286046992.1,N
1457026915.9,286046992.1,N
1457026935.7,286046992.0,N
1457026955.6,286046992.1,N
1457026975.4,286046994.2,N
1457026995.2,286046996.3,N
1457027015.1,286046992.1,N
1457027016.0,286046992.1,N
1457027035.8,286046993.6,N
1457027055.6,286046991.7,N
1457027075.5,286046992.3,N
1457027095.3,286046994.7,N
1457027115.1,286046990.2,Y
1457027135.9,286046998.0,P
1457027155.7,286046998.9,N
1457027175.5,286046997.0,N
1457027195.4,286046996.5,N
1457027215.2,286047000.9,N
1457027235.0,286047000.4,N
1457027235.9,286047000.4,N
1457027255.8,286047006.0,Y
1457027275.6,286047008.8,P
1457027295.4,286047007.8,N
1457027315.3,286047011.1,N
1457027335.1,286047014.8,Y
1457027336.0,286047014.8,P
1457027355.8,286047007.9,N
1457027375.7,286047008.3,N
1457027395.5,286047007.9,N
1457027415.3,286047009.1,Y
1457027435.2,286046996.7,P
1457027455.9,286046998.6,N
1457027475.7,286047000.0,N
1457027495.6,286047001.0,N
1457027515.4,286047000.9,N
1457027535.2,286046998.5,N
1457027555.0,286047001.0,N
1457027556.0,286047001.0,N
1457027575.8,286047004.1,N
1457027595.6,286047003.9,N
1457027615.4,286047003.6,N
1457027635.3,286047004.4,N
1457027655.1,286047001.3,N
1457027675.8,286047003.6,N
1457027695.7,286047004.7,N
1457027715.5,286047007.4,N
1457027735.3,286047009.2,N
1457027755.2,286047005.4,N
1457027775.9,286047005.1,N
1457027795.7,286047003.3,N
1457027815.6,286047001.8,N
1457027835.4,286047002.1,N
1457027855.2,286046999.8,N
1457027875.0,286047000.4,N
1457027876.0,286047000.4,N
1457027895.8,286047000.5,N
1457027915.6,286046998.5,N
1457027935.4,286046999.2,N
1457027955.3,286046997.9,N
1457027975.1,286046996.1,N
1457027995.8,286046997.8,N
